Retour au catalogue

COSMOS 1275 DEB

ActifPO
NORAD 42212·DEBRIS·🇷🇺 Russia

Lancé Jun 4, 1981 depuis Plesetsk Cosmodrome

Loading…

Prochains Passages (prochaines 24 heures)

TLE

FraisSource: Space-Track

Époque: Sep 13, 2026, 06:38 UTC

1 42212U 81053UC  26256.27680735  .00000675  00000-0  75916-3 0  9996
2 42212  83.0466  82.5835 0149909  37.3006  81.8894 13.64722676636010

Suivez COSMOS 1275 DEB en temps réel avec AllMySat

Download on the App Store